Content
SEND FEEDBACK

Daily
Averages
Monthly
Summary
United States of America

QUITMAN, GEORGIA


Home > North America > United States > Georgia
Elevation: 179 feet     Latitude: 30 48N     Longitude: 083 35W

WEATHER
 
SELECT A DAY
Number of Records: 142,872;   Date Range: 6/10/10 - 9/16/14
 
SHARE

PRINT THIS DATA

[ ← Previous Day ]
WEATHER ALMANAC - FEBRUARY 8, 2014
[ Next Day → ]
[ °C ]   °F
Weather ElementAverageHighLow
Temperature50.2 °F60.8 °F (2:55 pm)42.8 °F (11:55 pm)
Dewpoint45.5 °F50 °F (10:35 am)41 °F (12:35 am)
Humidity85.5 %100 % (6:15 am)55 % (3:15 pm)
Barometer30.18 in30.24 in (7:35 am)30.11 in (3:35 pm)
Wind Speed2.7 mph6.9 mph (9:55 am)
Weather ElementAverage
Visibility9.1 mi
Wind DirectionENE (59.1 °)

Weather ElementTotal
Precipitation---
Heating Degree Days13.2 (Base 65)
Growing Degree Days1.8 (Base 50)
Averaged from 70 records on February 8, 2014
WEATHER CONDITIONS BREAKOUT
WIND DIRECTION BREAKOUT
WEATHER BY HOUR - FEBRUARY 8, 2014
[ °C ]   °F
Local TimeTemperatureDewpointHumidityBarometerVisibilityWind DirectionWind SpeedGust SpeedPrecipitationEventsConditions
12:35 AM44.6 °F41.0 °F87 %30.20 in10.0 miCalmMostly Cloudy
12:55 AM46.4 °F41.0 °F81 %30.20 in10.0 miNE (40°)3.5 mphMostly Cloudy
1:15 AM46.4 °F41.0 °F81 %30.19 in10.0 miNE (40°)3.5 mphMostly Cloudy
1:35 AM46.4 °F41.0 °F81 %30.19 in10.0 miNNE (30°)3.5 mphScattered Clouds
1:55 AM46.4 °F41.0 °F81 %30.18 in10.0 miNE (50°)3.5 mphMostly Cloudy
2:15 AM46.4 °F41.0 °F81 %30.17 in10.0 miCalmOvercast
2:35 AM48.2 °F41.0 °F76 %30.18 in10.0 miCalmOvercast
2:55 AM48.2 °F41.0 °F76 %30.18 in10.0 miNNE (30°)3.5 mphOvercast
3:15 AM46.4 °F41.0 °F81 %30.17 in10.0 miNNE (20°)5.8 mphRainLight Rain
3:35 AM46.4 °F42.8 °F87 %30.18 in10.0 miNorth (10°)3.5 mphOvercast
3:55 AM46.4 °F41.0 °F81 %30.18 in10.0 miNorth (360°)4.6 mphOvercast
4:15 AM46.4 °F42.8 °F87 %30.17 in10.0 miCalmOvercast
4:35 AM46.4 °F42.8 °F87 %30.17 in10.0 miCalmOvercast
4:55 AM46.4 °F42.8 °F87 %30.17 in10.0 miNorth (10°)3.5 mphOvercast
5:15 AM46.4 °F42.8 °F87 %30.17 in10.0 miNorth (10°)4.6 mphRainLight Rain
5:35 AM46.4 °F42.8 °F87 %30.18 in10.0 miNorth (350°)4.6 mphRainLight Rain
5:55 AM46.4 °F44.6 °F93 %30.19 in10.0 miNorth (350°)4.6 mphRainLight Rain
6:15 AM46.4 °F46.4 °F100 %30.20 in5.0 miNorth (350°)3.5 mphRainRain
6:35 AM46.4 °F46.4 °F100 %30.20 in5.0 miNorth (10°)3.5 mphRainRain
6:55 AM46.4 °F46.4 °F100 %30.21 in5.0 miCalmRainLight Rain
7:15 AM46.4 °F46.4 °F100 %30.22 in5.0 miCalmDrizzle
7:35 AM46.4 °F46.4 °F100 %30.24 in7.0 miNNW (340°)4.6 mphRainLight Rain
7:55 AM46.4 °F46.4 °F100 %30.23 in7.0 miNE (40°)3.5 mphDrizzle
8:15 AM46.4 °F46.4 °F100 %30.22 in5.0 miNNE (20°)5.8 mphRainLight Rain
8:35 AM46.4 °F46.4 °F100 %30.21 in7.0 miENE (60°)5.8 mphRainLight Rain
8:55 AM46.4 °F46.4 °F100 %30.24 in7.0 miNorth (10°)5.8 mphOvercast
9:15 AM46.4 °F46.4 °F100 %30.24 in7.0 miNE (40°)4.6 mphRainLight Rain
9:35 AM46.4 °F46.4 °F100 %30.23 in7.0 miNE (50°)5.8 mphRainRain
9:55 AM46.4 °F46.4 °F100 %30.22 in7.0 miENE (60°)6.9 mphRainRain
10:15 AM46.4 °F46.4 °F100 %30.22 in10.0 miNE (50°)5.8 mphRainLight Rain
10:35 AM50.0 °F50.0 °F100 %30.22 in10.0 miENE (60°)6.9 mphMostly Cloudy
10:55 AM51.8 °F50.0 °F94 %30.21 in10.0 miENE (70°)5.8 mphMostly Cloudy
11:15 AM51.8 °F50.0 °F94 %30.22 in10.0 miEast (80°)3.5 mphScattered Clouds
11:35 AM51.8 °F50.0 °F94 %30.21 in10.0 miNNE (30°)5.8 mphMostly Cloudy
11:55 AM53.6 °F50.0 °F88 %30.21 in10.0 miCalmOvercast
12:15 PM53.6 °F50.0 °F88 %30.20 in10.0 miNE (50°)3.5 mphOvercast
12:35 PM55.4 °F48.2 °F77 %30.19 in10.0 miNorth (360°)5.8 mphOvercast
12:55 PM55.4 °F48.2 °F77 %30.18 in10.0 miENE (60°)4.6 mphMostly Cloudy
1:15 PM57.2 °F46.4 °F67 %30.17 in10.0 miNNW (330°)6.9 mphMostly Cloudy
1:35 PM57.2 °F46.4 °F67 %30.16 in10.0 miNE (50°)3.5 mphMostly Cloudy
1:55 PM59.0 °F46.4 °F63 %30.15 in10.0 miNNW (340°)4.6 mphOvercast
2:15 PM59.0 °F46.4 °F63 %30.14 in10.0 miNNE (30°)4.6 mphMostly Cloudy
2:35 PM59.0 °F46.4 °F63 %30.14 in10.0 miEast (90°)3.5 mphScattered Clouds
2:55 PM60.8 °F46.4 °F59 %30.12 in10.0 miENE (70°)6.9 mphScattered Clouds
3:15 PM60.8 °F44.6 °F55 %30.12 in10.0 miNE (50°)5.8 mphScattered Clouds
3:35 PM60.8 °F44.6 °F55 %30.11 in10.0 miENE (60°)4.6 mphClear
3:55 PM60.8 °F44.6 °F55 %30.12 in10.0 miCalmClear
4:35 PM60.8 °F46.4 °F59 %30.12 in10.0 miNorth (10°)3.5 mphClear
4:55 PM60.8 °F44.6 °F55 %30.12 in10.0 miNE (50°)3.5 mphClear
5:15 PM60.8 °F44.6 °F55 %30.12 in10.0 miCalmClear
5:35 PM60.8 °F44.6 °F55 %30.13 in10.0 miNNE (20°)3.5 mphClear
5:55 PM59.0 °F46.4 °F63 %30.13 in10.0 miCalmClear
6:15 PM55.4 °F46.4 °F72 %30.14 in10.0 miCalmClear
6:35 PM55.4 °F46.4 °F72 %30.14 in10.0 miCalmClear
6:55 PM51.8 °F46.4 °F82 %30.14 in10.0 miCalmClear
7:15 PM51.8 °F50.0 °F94 %30.15 in10.0 miCalmClear
7:35 PM50.0 °F50.0 °F100 %30.15 in10.0 miCalmClear
7:55 PM50.0 °F50.0 °F100 %30.16 in10.0 miCalmClear
8:15 PM48.2 °F48.2 °F100 %30.16 in10.0 miCalmClear
8:35 PM46.4 °F46.4 °F100 %30.16 in10.0 miCalmClear
8:55 PM46.4 °F46.4 °F100 %30.16 in10.0 miCalmClear
9:15 PM46.4 °F46.4 °F100 %30.16 in10.0 miCalmClear
9:35 PM46.4 °F46.4 °F100 %30.16 in10.0 miCalmClear
9:55 PM44.6 °F44.6 °F100 %30.16 in10.0 miCalmClear
10:15 PM44.6 °F44.6 °F100 %30.17 in7.0 miCalmClear
10:35 PM44.6 °F44.6 °F100 %30.17 in10.0 miCalmClear
10:55 PM44.6 °F44.6 °F100 %30.16 in7.0 miCalmClear
11:15 PM44.6 °F44.6 °F100 %30.16 in5.0 miCalmClear
11:35 PM44.6 °F44.6 °F100 %30.16 in10.0 miCalmClear
11:55 PM42.8 °F42.8 °F100 %30.16 in7.0 miCalmClear
Hourly data recorded from KTVI, located miles away from Quitman, Georgia







STORIES FROM OUR PARTNERS